Regional Weather Roundup
Issued by NWS

Home | Current Version | Previous Version | Text Only | Print | Product List | Glossary On
Versions: 1 2 3 4 5 6 7 8 9 10 11 12 13 14 15 16 17 18 19 20 21 22 23 24 25 26 27 28 29 30 31 32 33 34 35 36 37 38 39 40 41 42 43 44 45 46 47 48 49 50
321
ASUS43 KMKX 231421
RWRWI

WISCONSIN REGIONAL WEATHER ROUNDUP
NATIONAL WEATHER SERVICE MILWAUKEE/SULLIVAN WI
900 AM CDT SAT SEP 23 2017

NOTE: "FAIR" INDICATES FEW OR NO CLOUDS BELOW 12,000 FEET WITH NO
SIGNIFICANT WEATHER AND/OR OBSTRUCTIONS TO VISIBILITY.

WIZ001-002-006>008-014>016-023>028-231500-
NORTHWEST WISCONSIN

CITY           SKY/WX    TMP DP  RH WIND       PRES   REMARKS
SUPERIOR ARPT  CLOUDY    69  67  94 S3        29.92R
ASHLAND        MOSUNNY   77  68  73 S16       29.93R
HAYWARD        SUNNY     76  67  73 SW13      29.98R
SIREN          CLOUDY    75  66  74 S8        29.96R
CUMBERLAND     MOSUNNY   72  64  78 S9G17     29.99S
RICE LAKE      MOSUNNY   75  67  75 S6        30.01R
CHETEK         MOSUNNY   75  69  79 S7        30.00R
LADYSMITH      SUNNY     75  67  76 S8        30.03R
EAU CLAIRE     SUNNY     77  67  71 S7        29.99R
MENOMONIE      MOSUNNY   76  68  76 S6        30.00R
NEW RICHMOND   SUNNY     75  66  73 S8        29.99R
OSCEOLA        MOSUNNY   76  67  73 S9        30.00R
$$

WIZ003>005-009-010-017-018-231500-
NORTH CENTRAL WISCONSIN

CITY           SKY/WX    TMP DP  RH WIND       PRES   REMARKS
MANITOWISH WTR NOT AVBL
ARBOR VITAE    SUNNY     74  68  80 SW8       30.03S
WOODRUFF       SUNNY     74  68  80 SW8       30.03S
RHINELANDER    SUNNY     74  66  76 SW8       30.06R
EAGLE RIVER    SUNNY     73  64  73 SW7       30.04R
LAND O LAKES   SUNNY     74  66  75 SW6       30.04R
PHILLIPS       CLOUDY    73  68  86 S8        30.02S
TOMAHAWK       SUNNY     72  65  79 CALM      30.06R
MEDFORD        SUNNY     72  65  79 S10       30.05S
MERRILL        SUNNY     75  67  75 SW7       30.06R
$$

WIZ029-030-035-036-043>047-231500-
CENTRAL WISCONSIN

CITY           SKY/WX    TMP DP  RH WIND       PRES   REMARKS
WAUSAU         SUNNY     73  65  75 SW5       30.05R
MOSINEE        SUNNY     73  66  78 SW6       30.07R
MARSHFIELD     SUNNY     74  64  71 S8        30.06R
STEVENS POINT  SUNNY     74  64  71 SW6       30.07R
WAUPACA        SUNNY     74  69  81 CALM      30.08R
WAUTOMA        NOT AVBL
WISC RAPIDS    SUNNY     76  66  71 SW8       30.07S
CAMP DOUGLAS   MOSUNNY   75  66  73 S5        30.06R
$$

WIZ011>013-019>022-031-037>040-048>050-231500-
NORTHEAST WISCONSIN

CITY           SKY/WX    TMP DP  RH WIND       PRES   REMARKS
ANTIGO         SUNNY     73  66  77 SW8       30.08R
SHAWANO        SUNNY     75  67  74 CALM      30.05R
OCONTO         SUNNY     74  66  75 SW5       30.04S
STURGEON BAY   SUNNY     79  66  64 SW8       30.06R HX  81
GREEN BAY      SUNNY     76  69  79 S5        30.06R
MANITOWOC      SUNNY     76  68  76 SE3       30.08R
APPLETON       MOSUNNY   75  63  64 SW7       30.06R
CLINTONVILLE   SUNNY     75  64  69 S5        30.06R
OSHKOSH        SUNNY     76  66  71 SW7       30.07R
$$

WIZ032>034-041-042-053>061-231500-
SOUTHWEST WISCONSIN

CITY           SKY/WX    TMP DP  RH WIND       PRES   REMARKS
LA CROSSE      SUNNY     78  67  68 S7        30.03R HX  80
SPARTA         SUNNY     76  66  71 CALM      30.06R
VIROQUA        SUNNY     75  66  74 S6        30.08R
BOSCOBEL       SUNNY     75  66  73 CALM      30.06R
PRAIRIE DU CHI SUNNY     74  62  65 CALM      30.05S
PLATTEVILLE    SUNNY     75  67  77 SE6       30.08S
$$

WIZ056-057-062-063-064-067-068-231500-
SOUTH CENTRAL WISCONSIN

CITY           SKY/WX    TMP DP  RH WIND       PRES   REMARKS
REEDSBURG      SUNNY     77  66  69 S3        30.07R
BARABOO/DELLS  SUNNY     77  63  62 SW6       30.07S
LONE ROCK      SUNNY     74  68  81 E3        30.07R
MINERAL POINT  SUNNY     75  70  83 SE3       30.09S
MADISON        MOSUNNY   75  66  73 S7        30.08R
MIDDLETON      SUNNY     79  65  63 CALM      30.09S HX  80
WATERTOWN      SUNNY     75  68  78 S6        30.09R
MONROE         NOT AVBL
JANESVILLE     SUNNY     75  66  73 CALM      30.09R
$$

WIZ051-052-058>065-066-070>072-231500-
SOUTHEAST WISCONSIN

CITY           SKY/WX    TMP DP  RH WIND       PRES   REMARKS
MILWAUKEE      MOSUNNY   80  66  62 SW6       30.09R HX  82
WAUKESHA       SUNNY     75  64  69 SW6       30.11R
MILWAUKEE/TIMM SUNNY     79  63  57 SW3       30.09S HX  80
RACINE         SUNNY     80  68  66 S6        30.11R HX  83
BURLINGTON     SUNNY     77  69  75 S3        30.10R
KENOSHA        SUNNY     80  66  62 S6        30.10R HX  82
FOND DU LAC    SUNNY     78  65  63 SW9       30.08R HX  80
SHEBOYGAN      SUNNY     77  71  82 S6        30.08R
WEST BEND        N/A     81  66  61 SW5       30.09S HX  83
JUNEAU         SUNNY     73  66  77 CALM      30.10R
$$

LSZ147-162-231500-
LAKE SUPERIOR

STATION/POSITION TIME  TEMP    WIND        PRES    WAVE
                       AIR SEA DIR/SP/G            HT/PER
                 (UTC) (F)     (DEG/KT/KT) (MB)    (FT/S)
W MID LAKE BUOY  1350   64 55  210/ 12/ 14 1012.0R   1/ 4
DEVILS ISLAND    1400   73     190/  6/  8 1012.7R
SAXON HARBOR     1330   77     190/  5/ 11 1012.9R
$$

LMZ867-665-643>646-231500-
LAKE MICHIGAN

STATION/POSITION TIME  TEMP    WIND        PRES    WAVE
                       AIR SEA DIR/SP/G            HT/PER
                 (UTC) (F)     (DEG/KT/KT) (MB)    (FT/S)
S GREEN BAY BUOY 1400   70 67  200/  8/  8 1017.1
N MID LAKE BUOY  1350   68 66  190/ 12/ 14 1017.8R   2/ 4
NORTHPORT PIER   1340   77     180/  3/  5 1016.9S
KEWAUNEE LAKESHO 1354   68     150/  5/  6 1017.1R
SHEBOYGAN LAKESH 1400   72     170/ 10/ 11 1018.0R
PORT WASHINGTON  1330   77     160/  4/  8 1019.3R
ATWATER BUOY     1309   71 67  150/  8/  8 1019.0R
MILWAUKEE LAKESH 1400   74     190/  1/  1   N/A
S MID LAKE BUOY  1350   72 70  130/  8/  8 1019.4R   0
KENOSHA   LAKESH 1400   73     170/  9/ 10 1018.6
$$

TC  - TEMPERATURE IN CELSIUS
VSB - VISIBILITY IN STATUTE MILES
WCI - WIND CHILL INDEX
HX  - HEAT INDEX





USA.gov is the U.S. government's official web portal to all federal, state and local government web resources and services.